Starlink 11087

operational
NORAD ID: 59421 Int'l Des: 2024-065 Owner: SPXS Country: US Constellation: starlink
LEOCIRCULAR

Starlink 11087について

説明を読み込み中...

リアルタイム位置

3D地球を読み込み中...

次回通過

高度履歴

Altitude vs Time

uPlot chart will show altitude changes over time

軌道要素

1 59421U 24065A 25350.68016011 .00000492 00000-0 89175-5 0 9996
2 59421 53.1605 143.2275 0001037 102.2425 257.8709 15.69716119 98476
Epoch: Dec 16, 2025 • Age: 18 hours

現在のステータス

高度 360.3 km
速度 7.69 km/s
衛星直下点 4.41°N, 103.82°W
打ち上げ日 Apr 7, 2024
運用期間 1.6 years
タイプ internet

技術仕様

分類 Payload
質量 960.00 kg
乾燥質量 910.00 kg
総質量 960.00 kg
長さ 0.30 m
直径 4.10 m
スパン 29.00 m
形状 Box + pan
製造者 SPXS
バスタイプ Starlink V2MD
フェーズステータス In Orbit
所有者/国 SPXS/US

大規模コンステレーション

Loading constellations...